Time,TemperatureF,DewpointF,PressureIn,WindDirection,WindDirectionDegrees,WindSpeedMPH,WindSpeedGustMPH,Humidity,HourlyPrecipIn,Conditions,Clouds,dailyrainin,SoftwareType,DateUTC
2013-03-17 00:01:00,31.3,27.6,30.04,NNW,342,2.0,3.0,86,0.00,,,0.00,Wunderground v.1.13,2013-03-17 04:01:00,
2013-03-17 00:02:00,31.3,27.6,30.04,North,351,5.0,5.0,86,0.00,,,0.00,Wunderground v.1.13,2013-03-17 04:02:00,
2013-03-17 00:03:00,31.3,27.6,30.04,North,351,3.0,5.0,86,0.00,,,0.00,Wunderground v.1.13,2013-03-17 04:03:00,
2013-03-17 00:08:00,31.3,27.6,30.04,NNW,346,5.0,5.0,86,0.00,,,0.00,Wunderground v.1.13,2013-03-17 04:08:00,
2013-03-17 00:13:00,31.3,27.6,30.03,NNW,338,2.0,4.0,86,0.00,,,0.00,Wunderground v.1.13,2013-03-17 04:13:00,
2013-03-17 00:19:00,31.5,27.8,30.03,NNW,329,6.0,6.0,86,0.00,,,0.00,Wunderground v.1.13,2013-03-17 04:19:00,
2013-03-17 00:25:00,31.5,27.8,30.03,NNW,333,1.0,4.0,86,0.00,,,0.00,Wunderground v.1.13,2013-03-17 04:25:00,
2013-03-17 00:30:00,31.5,27.8,30.03,NNW,333,2.0,3.0,86,0.00,,,0.00,Wunderground v.1.13,2013-03-17 04:30:00,
2013-03-17 00:36:00,31.5,27.8,30.03,NW,320,3.0,3.0,86,0.00,,,0.00,Wunderground v.1.13,2013-03-17 04:36:00,
2013-03-17 00:42:00,31.5,27.8,30.04,NW,324,3.0,4.0,86,0.00,,,0.00,Wunderground v.1.13,2013-03-17 04:42:00,
2013-03-17 00:48:00,31.5,27.8,30.04,NNW,334,3.0,5.0,86,0.00,,,0.00,Wunderground v.1.13,2013-03-17 04:48:00,
2013-03-17 00:53:00,31.5,28.1,30.04,NNW,334,1.0,3.0,87,0.00,,,0.00,Wunderground v.1.13,2013-03-17 04:53:00,
2013-03-17 00:59:00,31.5,28.1,30.04,NNW,334,2.0,3.0,87,0.00,,,0.00,Wunderground v.1.13,2013-03-17 04:59:00,
2013-03-17 01:05:00,31.5,28.1,30.04,NNW,329,5.0,5.0,87,0.00,,,0.00,Wunderground v.1.13,2013-03-17 05:05:00,
2013-03-17 01:10:00,31.5,27.8,30.04,NW,323,1.0,5.0,86,0.00,,,0.00,Wunderground v.1.13,2013-03-17 05:10:00,
2013-03-17 01:16:00,31.5,28.1,30.05,NW,323,5.0,5.0,87,0.00,,,0.00,Wunderground v.1.13,2013-03-17 05:16:00,
2013-03-17 01:22:00,31.3,27.9,30.05,NW,325,2.0,2.0,87,0.00,,,0.00,Wunderground v.1.13,2013-03-17 05:22:00,
2013-03-17 01:27:00,31.3,27.9,30.04,NW,325,2.0,2.0,87,0.00,,,0.00,Wunderground v.1.13,2013-03-17 05:27:00,
2013-03-17 01:33:00,31.3,27.9,30.04,NW,325,0.0,2.0,87,0.00,,,0.00,Wunderground v.1.13,2013-03-17 05:33:00,
2013-03-17 01:39:00,31.5,28.1,30.04,NW,325,0.0,1.0,87,0.00,,,0.00,Wunderground v.1.13,2013-03-17 05:39:00,
2013-03-17 01:45:00,31.5,28.1,30.04,NW,325,1.0,3.0,87,0.00,,,0.00,Wunderground v.1.13,2013-03-17 05:45:00,
2013-03-17 01:50:00,31.5,28.1,30.04,North,10,1.0,2.0,87,0.00,,,0.00,Wunderground v.1.13,2013-03-17 05:50:00,
2013-03-17 01:56:00,31.3,27.9,30.04,North,10,2.0,2.0,87,0.00,,,0.00,Wunderground v.1.13,2013-03-17 05:56:00,
2013-03-17 02:01:00,31.3,27.9,30.04,North,10,2.0,2.0,87,0.00,,,0.00,Wunderground v.1.13,2013-03-17 06:01:00,
2013-03-17 02:06:00,31.3,27.9,30.04,North,10,0.0,2.0,87,0.00,,,0.00,Wunderground v.1.13,2013-03-17 06:06:00,
2013-03-17 02:11:00,31.3,28.2,30.04,North,10,0.0,1.0,88,0.00,,,0.00,Wunderground v.1.13,2013-03-17 06:11:00,
2013-03-17 02:16:00,31.5,28.4,30.04,North,10,1.0,1.0,88,0.00,,,0.00,Wunderground v.1.13,2013-03-17 06:16:00,
2013-03-17 02:22:00,31.5,28.4,30.04,North,10,2.0,3.0,88,0.00,,,0.00,Wunderground v.1.13,2013-03-17 06:22:00,
2013-03-17 02:27:00,31.5,28.4,30.06,North,10,2.0,3.0,88,0.00,,,0.00,Wunderground v.1.13,2013-03-17 06:27:00,
2013-03-17 02:32:00,31.5,28.4,30.06,North,10,0.0,2.0,88,0.00,,,0.00,Wunderground v.1.13,2013-03-17 06:32:00,
2013-03-17 02:37:00,31.5,28.4,30.06,North,10,1.0,3.0,88,0.00,,,0.00,Wunderground v.1.13,2013-03-17 06:37:00,
2013-03-17 02:42:00,31.5,28.4,30.06,North,355,4.0,4.0,88,0.00,,,0.00,Wunderground v.1.13,2013-03-17 06:42:00,
2013-03-17 02:47:00,31.5,28.4,30.06,NW,310,0.0,4.0,88,0.00,,,0.00,Wunderground v.1.13,2013-03-17 06:47:00,
2013-03-17 02:52:00,31.5,28.1,30.06,NW,321,1.0,2.0,87,0.00,,,0.00,Wunderground v.1.13,2013-03-17 06:52:00,
2013-03-17 02:57:00,31.5,28.1,30.06,NW,321,2.0,3.0,87,0.00,,,0.00,Wunderground v.1.13,2013-03-17 06:57:00,
2013-03-17 03:02:00,31.5,28.1,30.06,NW,321,1.0,2.0,87,0.00,,,0.00,Wunderground v.1.13,2013-03-17 07:02:00,
2013-03-17 03:07:00,31.6,28.2,30.06,NW,321,0.0,3.0,87,0.00,,,0.00,Wunderground v.1.13,2013-03-17 07:07:00,
2013-03-17 03:13:00,31.6,28.2,30.06,NW,321,1.0,2.0,87,0.00,,,0.00,Wunderground v.1.13,2013-03-17 07:13:00,
2013-03-17 03:18:00,31.6,28.2,30.06,NW,321,3.0,3.0,87,0.00,,,0.00,Wunderground v.1.13,2013-03-17 07:18:00,
2013-03-17 03:23:00,31.6,28.2,30.06,NW,321,2.0,4.0,87,0.00,,,0.00,Wunderground v.1.13,2013-03-17 07:23:00,
2013-03-17 03:28:00,31.5,28.1,30.06,NW,321,3.0,3.0,87,0.00,,,0.00,Wunderground v.1.13,2013-03-17 07:28:00,
2013-03-17 03:33:00,31.6,28.2,30.06,NNW,328,5.0,5.0,87,0.00,,,0.00,Wunderground v.1.13,2013-03-17 07:33:00,
2013-03-17 03:38:00,31.5,28.1,30.06,NW,318,5.0,5.0,87,0.00,,,0.00,Wunderground v.1.13,2013-03-17 07:38:00,
2013-03-17 03:43:00,31.6,28.5,30.07,NW,318,2.0,5.0,88,0.00,,,0.00,Wunderground v.1.13,2013-03-17 07:43:00,
2013-03-17 03:48:00,31.6,28.5,30.07,NNW,338,1.0,4.0,88,0.00,,,0.00,Wunderground v.1.13,2013-03-17 07:48:00,
2013-03-17 03:53:00,31.6,28.5,30.07,NNW,339,1.0,6.0,88,0.00,,,0.00,Wunderground v.1.13,2013-03-17 07:53:00,
2013-03-17 03:58:00,31.6,28.5,30.07,NNW,339,2.0,3.0,88,0.00,,,0.00,Wunderground v.1.13,2013-03-17 07:58:00,
2013-03-17 04:03:00,31.6,28.5,30.07,NNW,339,2.0,5.0,88,0.00,,,0.00,Wunderground v.1.13,2013-03-17 08:03:00,
2013-03-17 04:08:00,31.6,28.5,30.07,NNW,339,0.0,3.0,88,0.00,,,0.00,Wunderground v.1.13,2013-03-17 08:08:00,
2013-03-17 04:13:00,31.6,28.5,30.06,North,349,3.0,6.0,88,0.00,,,0.00,Wunderground v.1.13,2013-03-17 08:13:00,
2013-03-17 04:18:00,31.6,28.5,30.06,North,349,2.0,2.0,88,0.00,,,0.00,Wunderground v.1.13,2013-03-17 08:18:00,
2013-03-17 04:23:00,31.6,28.7,30.06,NNE,28,0.0,5.0,89,0.00,,,0.00,Wunderground v.1.13,2013-03-17 08:23:00,
2013-03-17 04:28:00,31.5,28.4,30.05,NNE,15,1.0,6.0,88,0.00,,,0.00,Wunderground v.1.13,2013-03-17 08:28:00,
2013-03-17 04:33:00,31.5,28.4,30.05,North,360,1.0,4.0,88,0.00,,,0.00,Wunderground v.1.13,2013-03-17 08:33:00,
2013-03-17 04:38:00,31.5,28.6,30.05,North,350,3.0,6.0,89,0.00,,,0.00,Wunderground v.1.13,2013-03-17 08:38:00,
2013-03-17 04:43:00,31.6,28.5,30.05,NNW,346,3.0,5.0,88,0.00,,,0.00,Wunderground v.1.13,2013-03-17 08:43:00,
2013-03-17 04:48:00,31.6,28.5,30.05,North,5,2.0,3.0,88,0.00,,,0.00,Wunderground v.1.13,2013-03-17 08:48:00,
2013-03-17 04:53:00,31.6,28.5,30.05,North,5,2.0,3.0,88,0.00,,,0.00,Wunderground v.1.13,2013-03-17 08:53:00,
2013-03-17 04:58:00,31.5,28.4,30.05,North,351,4.0,7.0,88,0.00,,,0.00,Wunderground v.1.13,2013-03-17 08:58:00,
2013-03-17 05:03:00,31.5,28.4,30.05,NNE,19,1.0,4.0,88,0.00,,,0.00,Wunderground v.1.13,2013-03-17 09:03:00,
2013-03-17 05:08:00,31.5,28.4,30.05,NNW,346,4.0,6.0,88,0.00,,,0.00,Wunderground v.1.13,2013-03-17 09:08:00,
2013-03-17 05:13:00,31.5,28.4,30.06,NNW,346,2.0,4.0,88,0.00,,,0.00,Wunderground v.1.13,2013-03-17 09:13:00,
2013-03-17 05:18:00,31.5,28.1,30.06,NNW,346,1.0,3.0,87,0.00,,,0.00,Wunderground v.1.13,2013-03-17 09:18:00,
2013-03-17 05:23:00,31.6,28.5,30.06,NNW,346,1.0,3.0,88,0.00,,,0.00,Wunderground v.1.13,2013-03-17 09:23:00,
2013-03-17 05:28:00,31.6,28.2,30.06,North,355,1.0,5.0,87,0.00,,,0.00,Wunderground v.1.13,2013-03-17 09:28:00,
2013-03-17 05:33:00,31.6,28.2,30.06,NNW,346,5.0,5.0,87,0.00,,,0.00,Wunderground v.1.13,2013-03-17 09:33:00,
2013-03-17 05:38:00,31.6,27.9,30.06,NNW,330,1.0,6.0,86,0.00,,,0.00,Wunderground v.1.13,2013-03-17 09:38:00,
2013-03-17 05:43:00,31.6,27.9,30.07,NNW,330,1.0,3.0,86,0.00,,,0.00,Wunderground v.1.13,2013-03-17 09:43:00,
2013-03-17 05:48:00,31.6,27.9,30.07,NNW,330,0.0,3.0,86,0.00,,,0.00,Wunderground v.1.13,2013-03-17 09:48:00,
2013-03-17 05:53:00,31.6,27.9,30.07,North,355,3.0,7.0,86,0.00,,,0.00,Wunderground v.1.13,2013-03-17 09:53:00,
2013-03-17 05:58:00,31.6,27.9,30.08,NNE,14,1.0,5.0,86,0.00,,,0.00,Wunderground v.1.13,2013-03-17 09:58:00,
2013-03-17 06:03:00,31.8,28.1,30.08,North,5,3.0,8.0,86,0.00,,,0.00,Wunderground v.1.13,2013-03-17 10:03:00,
2013-03-17 06:08:00,31.8,28.1,30.08,NE,35,4.0,4.0,86,0.00,,,0.00,Wunderground v.1.13,2013-03-17 10:08:00,
2013-03-17 06:13:00,31.8,28.1,30.08,NE,53,4.0,5.0,86,0.00,,,0.00,Wunderground v.1.13,2013-03-17 10:13:00,
2013-03-17 06:18:00,31.8,28.1,30.08,NNE,15,3.0,6.0,86,0.00,,,0.00,Wunderground v.1.13,2013-03-17 10:18:00,
2013-03-17 06:23:00,31.6,27.6,30.08,North,11,2.0,6.0,85,0.00,,,0.00,Wunderground v.1.13,2013-03-17 10:23:00,
2013-03-17 06:28:00,31.6,27.3,30.09,NNE,30,4.0,4.0,84,0.00,,,0.00,Wunderground v.1.13,2013-03-17 10:28:00,
2013-03-17 06:34:00,31.5,27.2,30.09,North,350,7.0,7.0,84,0.00,,,0.00,Wunderground v.1.13,2013-03-17 10:34:00,
2013-03-17 06:39:00,31.5,27.2,30.09,North,10,2.0,4.0,84,0.00,,,0.00,Wunderground v.1.13,2013-03-17 10:39:00,
2013-03-17 06:44:00,31.3,27.0,30.09,NNE,13,4.0,6.0,84,0.00,,,0.00,Wunderground v.1.13,2013-03-17 10:44:00,
2013-03-17 06:49:00,31.2,26.6,30.09,NNW,343,2.0,7.0,83,0.00,,,0.00,Wunderground v.1.13,2013-03-17 10:49:00,
2013-03-17 06:54:00,31.2,26.6,30.09,NNW,342,1.0,4.0,83,0.00,,,0.00,Wunderground v.1.13,2013-03-17 10:54:00,
2013-03-17 06:59:00,31.0,26.1,30.11,North,360,0.0,6.0,82,0.00,,,0.00,Wunderground v.1.13,2013-03-17 10:59:00,
2013-03-17 07:04:00,31.0,26.1,30.11,North,360,4.0,6.0,82,0.00,,,0.00,Wunderground v.1.13,2013-03-17 11:04:00,
2013-03-17 07:09:00,31.0,26.1,30.11,North,5,6.0,6.0,82,0.00,,,0.00,Wunderground v.1.13,2013-03-17 11:09:00,
2013-03-17 07:14:00,31.0,25.9,30.11,North,5,2.0,6.0,81,0.00,,,0.00,Wunderground v.1.13,2013-03-17 11:14:00,
2013-03-17 07:19:00,30.9,25.5,30.11,NNE,26,5.0,6.0,80,0.00,,,0.00,Wunderground v.1.13,2013-03-17 11:19:00,
2013-03-17 07:24:00,30.9,25.2,30.11,North,9,0.0,4.0,79,0.00,,,0.00,Wunderground v.1.13,2013-03-17 11:24:00,
2013-03-17 07:29:00,30.9,25.2,30.13,North,9,2.0,3.0,79,0.00,,,0.00,Wunderground v.1.13,2013-03-17 11:29:00,
2013-03-17 07:34:00,30.9,24.8,30.13,North,9,0.0,3.0,78,0.00,,,0.00,Wunderground v.1.13,2013-03-17 11:34:00,
2013-03-17 07:39:00,30.9,24.8,30.13,North,9,0.0,4.0,78,0.00,,,0.00,Wunderground v.1.13,2013-03-17 11:39:00,
2013-03-17 07:44:00,30.9,24.5,30.14,North,9,4.0,4.0,77,0.00,,,0.00,Wunderground v.1.13,2013-03-17 11:44:00,
2013-03-17 07:49:00,30.9,24.2,30.14,NNE,29,3.0,4.0,76,0.00,,,0.00,Wunderground v.1.13,2013-03-17 11:49:00,
2013-03-17 07:54:00,31.0,24.3,30.14,NNE,29,3.0,4.0,76,0.00,,,0.00,Wunderground v.1.13,2013-03-17 11:54:00,
2013-03-17 07:59:00,31.0,24.3,30.15,NNE,29,0.0,3.0,76,0.00,,,0.00,Wunderground v.1.13,2013-03-17 11:59:00,
2013-03-17 08:04:00,31.0,24.3,30.15,NNE,32,0.0,3.0,76,0.00,,,0.00,Wunderground v.1.13,2013-03-17 12:04:00,
2013-03-17 08:09:00,31.0,24.3,30.15,NNE,32,0.0,2.0,76,0.00,,,0.00,Wunderground v.1.13,2013-03-17 12:09:00,
2013-03-17 08:14:00,31.0,24.3,30.16,NNE,32,0.0,1.0,76,0.00,,,0.00,Wunderground v.1.13,2013-03-17 12:14:00,
2013-03-17 08:19:00,31.2,24.8,30.16,NNE,32,0.0,1.0,77,0.00,,,0.00,Wunderground v.1.13,2013-03-17 12:19:00,
2013-03-17 08:24:00,31.2,24.8,30.16,NNE,32,0.0,2.0,77,0.00,,,0.00,Wunderground v.1.13,2013-03-17 12:24:00,
2013-03-17 08:29:00,31.2,24.8,30.16,NNE,32,0.0,0.0,77,0.00,,,0.00,Wunderground v.1.13,2013-03-17 12:29:00,
2013-03-17 08:34:00,31.2,24.5,30.16,NNE,32,0.0,0.0,76,0.00,,,0.00,Wunderground v.1.13,2013-03-17 12:34:00,
2013-03-17 08:39:00,31.3,24.6,30.16,NNE,32,2.0,2.0,76,0.00,,,0.00,Wunderground v.1.13,2013-03-17 12:39:00,
2013-03-17 08:44:00,31.3,24.6,30.17,NNE,32,0.0,1.0,76,0.00,,,0.00,Wunderground v.1.13,2013-03-17 12:44:00,
2013-03-17 08:49:00,31.3,24.6,30.17,NNE,32,0.0,2.0,76,0.00,,,0.00,Wunderground v.1.13,2013-03-17 12:49:00,
2013-03-17 08:54:00,31.5,24.8,30.17,NNE,32,0.0,0.0,76,0.00,,,0.00,Wunderground v.1.13,2013-03-17 12:54:00,
2013-03-17 08:59:00,31.5,24.8,30.17,NNE,32,0.0,2.0,76,0.00,,,0.00,Wunderground v.1.13,2013-03-17 12:59:00,
2013-03-17 09:04:00,31.5,24.8,30.17,NNE,32,1.0,2.0,76,0.00,,,0.00,Wunderground v.1.13,2013-03-17 13:04:00,
2013-03-17 09:09:00,31.5,24.8,30.17,NNE,32,2.0,2.0,76,0.00,,,0.00,Wunderground v.1.13,2013-03-17 13:09:00,
2013-03-17 09:14:00,31.5,24.8,30.18,NNE,32,3.0,3.0,76,0.00,,,0.00,Wunderground v.1.13,2013-03-17 13:14:00,
2013-03-17 09:19:00,31.6,24.6,30.18,NNE,32,0.0,4.0,75,0.00,,,0.00,Wunderground v.1.13,2013-03-17 13:19:00,
2013-03-17 09:24:00,31.6,24.9,30.18,NNE,32,1.0,2.0,76,0.00,,,0.00,Wunderground v.1.13,2013-03-17 13:24:00,
2013-03-17 09:29:00,31.8,24.8,30.18,NNE,32,0.0,1.0,75,0.00,,,0.00,Wunderground v.1.13,2013-03-17 13:29:00,
2013-03-17 09:34:00,31.8,24.5,30.18,NNE,32,0.0,1.0,74,0.00,,,0.00,Wunderground v.1.13,2013-03-17 13:34:00,
2013-03-17 09:39:00,31.8,24.1,30.18,NNE,32,0.0,1.0,73,0.00,,,0.00,Wunderground v.1.13,2013-03-17 13:39:00,
2013-03-17 09:44:00,31.8,24.1,30.19,NNE,32,0.0,1.0,73,0.00,,,0.00,Wunderground v.1.13,2013-03-17 13:44:00,
2013-03-17 09:50:00,31.9,24.2,30.19,NNE,32,2.0,2.0,73,0.00,,,0.00,Wunderground v.1.13,2013-03-17 13:50:00,
2013-03-17 09:55:00,31.9,24.2,30.19,NNE,32,1.0,4.0,73,0.00,,,0.00,Wunderground v.1.13,2013-03-17 13:55:00,
2013-03-17 10:01:00,32.1,24.4,30.19,NNE,32,2.0,2.0,73,0.00,,,0.00,Wunderground v.1.13,2013-03-17 14:01:00,
2013-03-17 10:06:00,32.1,24.1,30.19,North,360,2.0,2.0,72,0.00,,,0.00,Wunderground v.1.13,2013-03-17 14:06:00,
2013-03-17 10:11:00,32.1,24.4,30.19,NE,50,5.0,5.0,73,0.00,,,0.00,Wunderground v.1.13,2013-03-17 14:11:00,
2013-03-17 10:16:00,31.9,24.2,30.19,North,11,1.0,2.0,73,0.00,,,0.00,Wunderground v.1.13,2013-03-17 14:16:00,
2013-03-17 10:22:00,31.9,24.2,30.19,North,11,0.0,2.0,73,0.00,,,0.00,Wunderground v.1.13,2013-03-17 14:22:00,
2013-03-17 10:27:00,31.6,24.6,30.18,NNW,348,5.0,6.0,75,0.00,,,0.00,Wunderground v.1.13,2013-03-17 14:27:00,
2013-03-17 10:32:00,31.3,24.9,30.18,North,350,4.0,5.0,77,0.00,,,0.00,Wunderground v.1.13,2013-03-17 14:32:00,
2013-03-17 10:37:00,31.0,25.2,30.18,NNE,26,3.0,5.0,79,0.00,,,0.00,Wunderground v.1.13,2013-03-17 14:37:00,
2013-03-17 10:42:00,30.9,24.8,30.18,North,355,4.0,7.0,78,0.00,,,0.00,Wunderground v.1.13,2013-03-17 14:42:00,
2013-03-17 10:47:00,30.9,25.2,30.18,NNW,347,4.0,6.0,79,0.00,,,0.00,Wunderground v.1.13,2013-03-17 14:47:00,
2013-03-17 10:52:00,30.9,25.2,30.18,NNW,345,3.0,5.0,79,0.00,,,0.00,Wunderground v.1.13,2013-03-17 14:52:00,
2013-03-17 10:57:00,31.0,25.2,30.18,NNW,332,6.0,6.0,79,0.00,,,0.00,Wunderground v.1.13,2013-03-17 14:57:00,
2013-03-17 11:02:00,31.3,25.8,30.18,NE,44,4.0,4.0,80,0.00,,,0.00,Wunderground v.1.13,2013-03-17 15:02:00,
2013-03-17 11:07:00,31.3,25.5,30.18,North,9,3.0,4.0,79,0.00,,,0.00,Wunderground v.1.13,2013-03-17 15:07:00,
2013-03-17 11:12:00,31.5,25.7,30.18,NE,49,4.0,4.0,79,0.00,,,0.00,Wunderground v.1.13,2013-03-17 15:12:00,
2013-03-17 11:17:00,31.5,25.4,30.18,North,355,5.0,6.0,78,0.00,,,0.00,Wunderground v.1.13,2013-03-17 15:17:00,
2013-03-17 11:22:00,31.5,25.4,30.18,NNE,14,6.0,6.0,78,0.00,,,0.00,Wunderground v.1.13,2013-03-17 15:22:00,
2013-03-17 11:27:00,31.3,25.2,30.19,NNE,19,2.0,4.0,78,0.00,,,0.00,Wunderground v.1.13,2013-03-17 15:27:00,
2013-03-17 11:33:00,31.2,25.1,30.19,North,355,3.0,4.0,78,0.00,,,0.00,Wunderground v.1.13,2013-03-17 15:33:00,
2013-03-17 11:38:00,31.2,25.1,30.19,North,11,3.0,6.0,78,0.00,,,0.00,Wunderground v.1.13,2013-03-17 15:38:00,
2013-03-17 11:43:00,31.2,25.1,30.18,NNE,28,2.0,4.0,78,0.00,,,0.00,Wunderground v.1.13,2013-03-17 15:43:00,
2013-03-17 11:48:00,31.5,25.7,30.18,North,360,3.0,5.0,79,0.00,,,0.00,Wunderground v.1.13,2013-03-17 15:48:00,
2013-03-17 11:53:00,31.5,25.7,30.18,NNE,18,5.0,7.0,79,0.00,,,0.00,Wunderground v.1.13,2013-03-17 15:53:00,
2013-03-17 11:58:00,31.5,25.7,30.19,North,11,3.0,5.0,79,0.00,,,0.00,Wunderground v.1.13,2013-03-17 15:58:00,
2013-03-17 12:03:00,31.8,26.0,30.19,NW,322,5.0,5.0,79,0.00,,,0.00,Wunderground v.1.13,2013-03-17 16:03:00,
2013-03-17 12:08:00,31.9,25.8,30.19,NNE,23,3.0,6.0,78,0.00,,,0.00,Wunderground v.1.13,2013-03-17 16:08:00,
2013-03-17 12:13:00,32.2,26.1,30.19,NNE,12,4.0,6.0,78,0.00,,,0.00,Wunderground v.1.13,2013-03-17 16:13:00,
2013-03-17 12:18:00,32.5,26.4,30.19,NNE,17,6.0,6.0,78,0.00,,,0.00,Wunderground v.1.13,2013-03-17 16:18:00,
2013-03-17 12:23:00,32.5,25.8,30.19,NE,42,3.0,9.0,76,0.00,,,0.00,Wunderground v.1.13,2013-03-17 16:23:00,
2013-03-17 12:28:00,32.7,26.0,30.19,NE,36,9.0,9.0,76,0.00,,,0.00,Wunderground v.1.13,2013-03-17 16:28:00,
2013-03-17 12:33:00,32.8,25.7,30.19,NNE,23,3.0,8.0,75,0.00,,,0.00,Wunderground v.1.13,2013-03-17 16:33:00,
2013-03-17 12:38:00,33.1,25.4,30.19,NE,34,2.0,5.0,73,0.00,,,0.00,Wunderground v.1.13,2013-03-17 16:38:00,
2013-03-17 12:43:00,33.4,25.7,30.19,NE,34,3.0,5.0,73,0.00,,,0.00,Wunderground v.1.13,2013-03-17 16:43:00,
2013-03-17 12:48:00,33.5,26.1,30.19,NE,54,6.0,8.0,74,0.00,,,0.00,Wunderground v.1.13,2013-03-17 16:48:00,
2013-03-17 12:53:00,33.4,25.7,30.19,NE,38,4.0,10.0,73,0.00,,,0.00,Wunderground v.1.13,2013-03-17 16:53:00,
2013-03-17 12:58:00,33.5,26.1,30.18,NE,50,2.0,7.0,74,0.00,,,0.00,Wunderground v.1.13,2013-03-17 16:58:00,
2013-03-17 13:03:00,33.5,26.1,30.18,NNE,17,2.0,7.0,74,0.00,,,0.00,Wunderground v.1.13,2013-03-17 17:03:00,
2013-03-17 13:08:00,33.8,26.1,30.18,NNE,21,3.0,5.0,73,0.00,,,0.00,Wunderground v.1.13,2013-03-17 17:08:00,
2013-03-17 13:13:00,34.0,26.3,30.18,NNE,13,3.0,5.0,73,0.00,,,0.00,Wunderground v.1.13,2013-03-17 17:13:00,
2013-03-17 13:18:00,34.1,26.3,30.18,NNE,30,4.0,7.0,73,0.00,,,0.00,Wunderground v.1.13,2013-03-17 17:18:00,
2013-03-17 13:23:00,34.1,26.3,30.18,NNE,26,3.0,6.0,73,0.00,,,0.00,Wunderground v.1.13,2013-03-17 17:23:00,
2013-03-17 13:28:00,34.1,26.0,30.18,NNE,17,4.0,5.0,72,0.00,,,0.00,Wunderground v.1.13,2013-03-17 17:28:00,
2013-03-17 13:34:00,34.3,26.2,30.18,East,84,1.0,5.0,72,0.00,,,0.00,Wunderground v.1.13,2013-03-17 17:34:00,
2013-03-17 13:39:00,34.6,26.8,30.18,NNE,15,2.0,5.0,73,0.00,,,0.00,Wunderground v.1.13,2013-03-17 17:39:00,
2013-03-17 13:44:00,34.7,26.6,30.18,NNE,28,4.0,5.0,72,0.00,,,0.00,Wunderground v.1.13,2013-03-17 17:44:00,
2013-03-17 13:49:00,34.7,26.3,30.18,NNE,24,1.0,4.0,71,0.00,,,0.00,Wunderground v.1.13,2013-03-17 17:49:00,
2013-03-17 13:54:00,34.9,25.8,30.18,NNE,12,2.0,8.0,69,0.00,,,0.00,Wunderground v.1.13,2013-03-17 17:54:00,
2013-03-17 13:59:00,35.0,24.8,30.17,ESE,118,6.0,11.0,66,0.00,,,0.00,Wunderground v.1.13,2013-03-17 17:59:00,
2013-03-17 14:04:00,35.2,25.7,30.17,NE,56,3.0,6.0,68,0.00,,,0.00,Wunderground v.1.13,2013-03-17 18:04:00,
2013-03-17 14:09:00,35.3,25.4,30.17,East,90,0.0,5.0,67,0.00,,,0.00,Wunderground v.1.13,2013-03-17 18:09:00,
2013-03-17 14:14:00,35.5,26.0,30.17,NNE,19,2.0,7.0,68,0.00,,,0.00,Wunderground v.1.13,2013-03-17 18:14:00,
2013-03-17 14:19:00,35.2,25.7,30.17,SSE,151,1.0,9.0,68,0.00,,,0.00,Wunderground v.1.13,2013-03-17 18:19:00,
2013-03-17 14:24:00,35.0,25.9,30.17,North,11,4.0,5.0,69,0.00,,,0.00,Wunderground v.1.13,2013-03-17 18:24:00,
2013-03-17 14:29:00,35.0,25.9,30.17,North,355,2.0,6.0,69,0.00,,,0.00,Wunderground v.1.13,2013-03-17 18:29:00,
2013-03-17 14:34:00,35.0,26.2,30.17,NE,38,2.0,6.0,70,0.00,,,0.00,Wunderground v.1.13,2013-03-17 18:34:00,
2013-03-17 14:39:00,35.0,25.9,30.17,North,360,2.0,5.0,69,0.00,,,0.00,Wunderground v.1.13,2013-03-17 18:39:00,
2013-03-17 14:44:00,35.2,26.4,30.16,North,10,3.0,6.0,70,0.00,,,0.00,Wunderground v.1.13,2013-03-17 18:44:00,
2013-03-17 14:49:00,35.2,25.7,30.16,North,360,0.0,7.0,68,0.00,,,0.00,Wunderground v.1.13,2013-03-17 18:49:00,
2013-03-17 14:54:00,35.3,26.1,30.16,NE,36,1.0,4.0,69,0.00,,,0.00,Wunderground v.1.13,2013-03-17 18:54:00,
2013-03-17 14:59:00,35.3,25.8,30.16,East,90,1.0,3.0,68,0.00,,,0.00,Wunderground v.1.13,2013-03-17 18:59:00,
2013-03-17 15:04:00,35.5,26.3,30.16,NE,36,2.0,5.0,69,0.00,,,0.00,Wunderground v.1.13,2013-03-17 19:04:00,
2013-03-17 15:09:00,35.2,25.7,30.16,NNE,24,2.0,11.0,68,0.00,,,0.00,Wunderground v.1.13,2013-03-17 19:09:00,
2013-03-17 15:14:00,35.0,25.9,30.16,NE,37,3.0,7.0,69,0.00,,,0.00,Wunderground v.1.13,2013-03-17 19:14:00,
2013-03-17 15:19:00,34.9,25.8,30.16,NE,51,2.0,10.0,69,0.00,,,0.00,Wunderground v.1.13,2013-03-17 19:19:00,
2013-03-17 15:24:00,35.0,26.2,30.16,North,360,3.0,7.0,70,0.00,,,0.00,Wunderground v.1.13,2013-03-17 19:24:00,
2013-03-17 15:29:00,35.2,26.4,30.16,ESE,121,4.0,4.0,70,0.00,,,0.00,Wunderground v.1.13,2013-03-17 19:29:00,
2013-03-17 15:34:00,35.2,26.0,30.16,SE,134,3.0,8.0,69,0.00,,,0.00,Wunderground v.1.13,2013-03-17 19:34:00,
2013-03-17 15:39:00,35.2,26.0,30.16,North,355,3.0,5.0,69,0.00,,,0.00,Wunderground v.1.13,2013-03-17 19:39:00,
2013-03-17 15:44:00,35.2,25.7,30.15,NE,39,1.0,7.0,68,0.00,,,0.00,Wunderground v.1.13,2013-03-17 19:44:00,
2013-03-17 15:49:00,35.2,26.0,30.15,NE,40,6.0,7.0,69,0.00,,,0.00,Wunderground v.1.13,2013-03-17 19:49:00,
2013-03-17 15:54:00,35.3,26.1,30.15,ESE,107,7.0,9.0,69,0.00,,,0.00,Wunderground v.1.13,2013-03-17 19:54:00,
2013-03-17 15:59:00,35.3,26.5,30.16,South,177,1.0,4.0,70,0.00,,,0.00,Wunderground v.1.13,2013-03-17 19:59:00,
2013-03-17 16:05:00,35.3,25.8,30.16,NNE,24,4.0,4.0,68,0.00,,,0.00,Wunderground v.1.13,2013-03-17 20:05:00,
2013-03-17 16:10:00,35.2,26.0,30.16,SSE,153,1.0,3.0,69,0.00,,,0.00,Wunderground v.1.13,2013-03-17 20:10:00,
2013-03-17 16:15:00,35.3,26.1,30.15,NNE,28,3.0,6.0,69,0.00,,,0.00,Wunderground v.1.13,2013-03-17 20:15:00,
2013-03-17 16:20:00,35.2,25.7,30.15,NNE,17,5.0,5.0,68,0.00,,,0.00,Wunderground v.1.13,2013-03-17 20:20:00,
2013-03-17 16:25:00,35.2,25.7,30.15,North,349,3.0,4.0,68,0.00,,,0.00,Wunderground v.1.13,2013-03-17 20:25:00,
2013-03-17 16:30:00,35.3,26.1,30.15,NE,38,4.0,4.0,69,0.00,,,0.00,Wunderground v.1.13,2013-03-17 20:30:00,
2013-03-17 16:35:00,35.3,25.4,30.15,East,88,3.0,3.0,67,0.00,,,0.00,Wunderground v.1.13,2013-03-17 20:35:00,
2013-03-17 16:40:00,35.3,26.1,30.15,NNE,27,2.0,4.0,69,0.00,,,0.00,Wunderground v.1.13,2013-03-17 20:40:00,
2013-03-17 16:45:00,35.3,25.8,30.15,NNE,26,0.0,3.0,68,0.00,,,0.00,Wunderground v.1.13,2013-03-17 20:45:00,
2013-03-17 16:50:00,35.5,26.0,30.15,NNE,17,3.0,4.0,68,0.00,,,0.00,Wunderground v.1.13,2013-03-17 20:50:00,
2013-03-17 16:56:00,35.5,25.6,30.15,SE,144,1.0,4.0,67,0.00,,,0.00,Wunderground v.1.13,2013-03-17 20:56:00,
2013-03-17 17:01:00,35.5,25.3,30.15,NNE,23,2.0,4.0,66,0.00,,,0.00,Wunderground v.1.13,2013-03-17 21:01:00,
2013-03-17 17:06:00,35.6,25.4,30.15,NNE,17,2.0,5.0,66,0.00,,,0.00,Wunderground v.1.13,2013-03-17 21:06:00,
2013-03-17 17:11:00,35.8,25.5,30.15,NNE,24,1.0,3.0,66,0.00,,,0.00,Wunderground v.1.13,2013-03-17 21:11:00,
2013-03-17 17:16:00,35.8,24.8,30.15,NNE,22,4.0,7.0,64,0.00,,,0.00,Wunderground v.1.13,2013-03-17 21:16:00,
2013-03-17 17:21:00,35.9,25.6,30.15,NE,54,1.0,6.0,66,0.00,,,0.00,Wunderground v.1.13,2013-03-17 21:21:00,
2013-03-17 17:26:00,36.0,25.4,30.15,NNE,13,2.0,3.0,65,0.00,,,0.00,Wunderground v.1.13,2013-03-17 21:26:00,
2013-03-17 17:31:00,36.2,25.2,30.15,NE,44,2.0,6.0,64,0.00,,,0.00,Wunderground v.1.13,2013-03-17 21:31:00,
2013-03-17 17:36:00,36.2,25.2,30.15,NNE,22,2.0,3.0,64,0.00,,,0.00,Wunderground v.1.13,2013-03-17 21:36:00,
2013-03-17 17:41:00,36.2,25.2,30.15,North,355,2.0,4.0,64,0.00,,,0.00,Wunderground v.1.13,2013-03-17 21:41:00,
2013-03-17 17:46:00,36.3,25.3,30.15,NNW,334,1.0,5.0,64,0.00,,,0.00,Wunderground v.1.13,2013-03-17 21:46:00,
2013-03-17 17:51:00,36.3,25.3,30.15,ESE,113,4.0,5.0,64,0.00,,,0.00,Wunderground v.1.13,2013-03-17 21:51:00,
2013-03-17 17:56:00,36.2,24.8,30.15,SE,124,9.0,10.0,63,0.00,,,0.00,Wunderground v.1.13,2013-03-17 21:56:00,
2013-03-17 18:01:00,36.2,24.8,30.15,SE,130,1.0,9.0,63,0.00,,,0.00,Wunderground v.1.13,2013-03-17 22:01:00,
2013-03-17 18:06:00,36.2,25.2,30.15,ENE,67,1.0,4.0,64,0.00,,,0.00,Wunderground v.1.13,2013-03-17 22:06:00,
2013-03-17 18:12:00,36.3,25.3,30.14,NE,48,1.0,3.0,64,0.00,,,0.00,Wunderground v.1.13,2013-03-17 22:12:00,
2013-03-17 18:17:00,36.5,25.5,30.14,SSW,192,2.0,3.0,64,0.00,,,0.00,Wunderground v.1.13,2013-03-17 22:17:00,
2013-03-17 18:22:00,36.5,25.8,30.14,ENE,64,1.0,5.0,65,0.00,,,0.00,Wunderground v.1.13,2013-03-17 22:22:00,
2013-03-17 18:27:00,36.5,25.5,30.13,SE,139,0.0,7.0,64,0.00,,,0.00,Wunderground v.1.13,2013-03-17 22:27:00,
2013-03-17 18:32:00,36.3,24.5,30.13,East,92,4.0,9.0,62,0.00,,,0.00,Wunderground v.1.13,2013-03-17 22:32:00,
2013-03-17 18:37:00,36.3,24.5,30.13,SE,125,4.0,5.0,62,0.00,,,0.00,Wunderground v.1.13,2013-03-17 22:37:00,
2013-03-17 18:42:00,36.3,24.9,30.13,SE,141,5.0,7.0,63,0.00,,,0.00,Wunderground v.1.13,2013-03-17 22:42:00,
2013-03-17 18:47:00,36.2,25.2,30.13,ESE,113,1.0,4.0,64,0.00,,,0.00,Wunderground v.1.13,2013-03-17 22:47:00,
2013-03-17 18:52:00,36.2,24.8,30.13,North,355,4.0,4.0,63,0.00,,,0.00,Wunderground v.1.13,2013-03-17 22:52:00,
2013-03-17 18:57:00,36.2,25.2,30.13,NNW,348,3.0,4.0,64,0.00,,,0.00,Wunderground v.1.13,2013-03-17 22:57:00,
2013-03-17 19:02:00,35.9,24.9,30.13,NNE,13,2.0,6.0,64,0.00,,,0.00,Wunderground v.1.13,2013-03-17 23:02:00,
2013-03-17 19:07:00,35.8,25.2,30.13,NNE,16,3.0,5.0,65,0.00,,,0.00,Wunderground v.1.13,2013-03-17 23:07:00,
2013-03-17 19:12:00,35.5,25.3,30.13,NNE,33,2.0,5.0,66,0.00,,,0.00,Wunderground v.1.13,2013-03-17 23:12:00,
2013-03-17 19:17:00,35.3,25.4,30.13,NNE,22,5.0,6.0,67,0.00,,,0.00,Wunderground v.1.13,2013-03-17 23:17:00,
2013-03-17 19:22:00,35.3,25.4,30.13,West,261,2.0,5.0,67,0.00,,,0.00,Wunderground v.1.13,2013-03-17 23:22:00,
2013-03-17 19:27:00,35.2,25.7,30.12,NNE,19,2.0,3.0,68,0.00,,,0.00,Wunderground v.1.13,2013-03-17 23:27:00,
2013-03-17 19:32:00,35.2,25.7,30.12,NNE,18,0.0,4.0,68,0.00,,,0.00,Wunderground v.1.13,2013-03-17 23:32:00,
2013-03-17 19:37:00,35.0,25.5,30.12,NNE,22,1.0,4.0,68,0.00,,,0.00,Wunderground v.1.13,2013-03-17 23:37:00,
2013-03-17 19:43:00,35.0,25.5,30.13,NE,55,0.0,4.0,68,0.00,,,0.00,Wunderground v.1.13,2013-03-17 23:43:00,
2013-03-17 19:48:00,34.9,25.4,30.13,WSW,252,1.0,10.0,68,0.00,,,0.00,Wunderground v.1.13,2013-03-17 23:48:00,
2013-03-17 19:53:00,34.7,25.2,30.13,SSW,209,2.0,3.0,68,0.00,,,0.00,Wunderground v.1.13,2013-03-17 23:53:00,
2013-03-17 19:58:00,34.6,25.5,30.14,NW,310,2.0,4.0,69,0.00,,,0.00,Wunderground v.1.13,2013-03-17 23:58:00,
2013-03-17 20:03:00,34.4,25.3,30.14,SW,220,0.0,4.0,69,0.00,,,0.00,Wunderground v.1.13,2013-03-18 00:03:00,
2013-03-17 20:08:00,34.3,25.5,30.14,NNE,32,3.0,4.0,70,0.00,,,0.00,Wunderground v.1.13,2013-03-18 00:08:00,
2013-03-17 20:13:00,34.3,25.5,30.14,NE,41,2.0,7.0,70,0.00,,,0.00,Wunderground v.1.13,2013-03-18 00:13:00,
2013-03-17 20:18:00,34.1,25.7,30.14,ENE,67,3.0,3.0,71,0.00,,,0.00,Wunderground v.1.13,2013-03-18 00:18:00,
2013-03-17 20:23:00,34.0,25.6,30.14,SE,129,3.0,4.0,71,0.00,,,0.00,Wunderground v.1.13,2013-03-18 00:23:00,
2013-03-17 20:28:00,34.0,25.6,30.14,NE,37,0.0,4.0,71,0.00,,,0.00,Wunderground v.1.13,2013-03-18 00:28:00,
2013-03-17 20:33:00,33.8,25.4,30.14,ENE,69,0.0,5.0,71,0.00,,,0.00,Wunderground v.1.13,2013-03-18 00:33:00,
2013-03-17 20:38:00,33.8,25.7,30.14,NNE,28,6.0,6.0,72,0.00,,,0.00,Wunderground v.1.13,2013-03-18 00:38:00,
2013-03-17 20:43:00,33.7,25.6,30.14,North,360,3.0,4.0,72,0.00,,,0.00,Wunderground v.1.13,2013-03-18 00:43:00,
2013-03-17 20:48:00,33.7,25.6,30.14,SSE,154,5.0,10.0,72,0.00,,,0.00,Wunderground v.1.13,2013-03-18 00:48:00,
2013-03-17 20:53:00,33.7,25.6,30.14,NNE,26,1.0,3.0,72,0.00,,,0.00,Wunderground v.1.13,2013-03-18 00:53:00,
2013-03-17 20:58:00,33.7,25.6,30.15,SE,140,1.0,5.0,72,0.00,,,0.00,Wunderground v.1.13,2013-03-18 00:58:00,
2013-03-17 21:03:00,33.5,25.4,30.15,NE,39,2.0,2.0,72,0.00,,,0.00,Wunderground v.1.13,2013-03-18 01:03:00,
2013-03-17 21:08:00,33.5,25.4,30.15,NNE,22,1.0,6.0,72,0.00,,,0.00,Wunderground v.1.13,2013-03-18 01:08:00,
2013-03-17 21:13:00,33.5,25.8,30.14,SSE,164,2.0,6.0,73,0.00,,,0.00,Wunderground v.1.13,2013-03-18 01:13:00,
2013-03-17 21:18:00,33.5,25.8,30.14,NE,41,2.0,4.0,73,0.00,,,0.00,Wunderground v.1.13,2013-03-18 01:18:00,
2013-03-17 21:23:00,33.4,25.7,30.14,NNE,30,5.0,6.0,73,0.00,,,0.00,Wunderground v.1.13,2013-03-18 01:23:00,
2013-03-17 21:28:00,33.4,25.7,30.14,North,9,5.0,5.0,73,0.00,,,0.00,Wunderground v.1.13,2013-03-18 01:28:00,
2013-03-17 21:33:00,33.2,25.5,30.14,SE,137,2.0,6.0,73,0.00,,,0.00,Wunderground v.1.13,2013-03-18 01:33:00,
2013-03-17 21:39:00,33.2,25.8,30.14,SSE,148,6.0,9.0,74,0.00,,,0.00,Wunderground v.1.13,2013-03-18 01:39:00,
2013-03-17 21:43:00,33.2,25.8,30.13,ESE,123,2.0,6.0,74,0.00,,,0.00,Wunderground v.1.13,2013-03-18 01:43:00,
2013-03-17 21:49:00,33.1,25.7,30.13,South,173,1.0,6.0,74,0.00,,,0.00,Wunderground v.1.13,2013-03-18 01:49:00,
2013-03-17 21:54:00,33.1,25.7,30.13,SE,128,3.0,7.0,74,0.00,,,0.00,Wunderground v.1.13,2013-03-18 01:54:00,
2013-03-17 21:59:00,33.1,25.7,30.13,SE,137,3.0,11.0,74,0.00,,,0.00,Wunderground v.1.13,2013-03-18 01:59:00,
2013-03-17 22:04:00,32.9,25.8,30.13,SE,142,4.0,7.0,75,0.00,,,0.00,Wunderground v.1.13,2013-03-18 02:04:00,
2013-03-17 22:09:00,32.9,25.8,30.13,ESE,115,2.0,7.0,75,0.00,,,0.00,Wunderground v.1.13,2013-03-18 02:09:00,
2013-03-17 22:14:00,32.9,25.8,30.13,NE,36,2.0,7.0,75,0.00,,,0.00,Wunderground v.1.13,2013-03-18 02:14:00,
2013-03-17 22:19:00,32.8,25.7,30.13,NW,315,3.0,5.0,75,0.00,,,0.00,Wunderground v.1.13,2013-03-18 02:19:00,
2013-03-17 22:24:00,32.8,25.7,30.13,North,355,3.0,9.0,75,0.00,,,0.00,Wunderground v.1.13,2013-03-18 02:24:00,
2013-03-17 22:29:00,32.8,26.1,30.13,SE,126,7.0,7.0,76,0.00,,,0.00,Wunderground v.1.13,2013-03-18 02:29:00,
2013-03-17 22:34:00,32.8,26.1,30.13,NNE,13,1.0,10.0,76,0.00,,,0.00,Wunderground v.1.13,2013-03-18 02:34:00,
2013-03-17 22:39:00,32.7,26.0,30.13,SE,130,4.0,5.0,76,0.00,,,0.00,Wunderground v.1.13,2013-03-18 02:39:00,
2013-03-17 22:44:00,32.7,26.0,30.13,SE,136,1.0,7.0,76,0.00,,,0.00,Wunderground v.1.13,2013-03-18 02:44:00,
2013-03-17 22:49:00,32.7,26.0,30.13,ESE,111,2.0,7.0,76,0.00,,,0.00,Wunderground v.1.13,2013-03-18 02:49:00,
2013-03-17 22:54:00,32.5,25.8,30.13,SE,131,2.0,5.0,76,0.00,,,0.00,Wunderground v.1.13,2013-03-18 02:54:00,
2013-03-17 22:59:00,32.5,25.8,30.12,SE,125,6.0,6.0,76,0.00,,,0.00,Wunderground v.1.13,2013-03-18 02:59:00,
2013-03-17 23:04:00,32.5,25.5,30.12,North,355,2.0,7.0,75,0.00,,,0.00,Wunderground v.1.13,2013-03-18 03:04:00,
2013-03-17 23:09:00,32.5,25.8,30.12,East,79,0.0,10.0,76,0.00,,,0.00,Wunderground v.1.13,2013-03-18 03:09:00,
2013-03-17 23:14:00,32.4,25.7,30.11,ESE,120,11.0,12.0,76,0.00,,,0.00,Wunderground v.1.13,2013-03-18 03:14:00,
2013-03-17 23:19:00,32.5,25.8,30.11,East,80,3.0,9.0,76,0.00,,,0.00,Wunderground v.1.13,2013-03-18 03:19:00,
2013-03-17 23:24:00,32.4,25.7,30.11,ENE,77,3.0,6.0,76,0.00,,,0.00,Wunderground v.1.13,2013-03-18 03:24:00,
2013-03-17 23:29:00,32.4,25.7,30.10,SE,144,4.0,10.0,76,0.00,,,0.00,Wunderground v.1.13,2013-03-18 03:29:00,
2013-03-17 23:34:00,32.4,25.4,30.10,ESE,107,6.0,16.0,75,0.00,,,0.00,Wunderground v.1.13,2013-03-18 03:34:00,
2013-03-17 23:39:00,32.4,25.7,30.10,East,93,5.0,11.0,76,0.00,,,0.00,Wunderground v.1.13,2013-03-18 03:39:00,
2013-03-17 23:44:00,32.4,25.4,30.10,ESE,111,4.0,10.0,75,0.00,,,0.00,Wunderground v.1.13,2013-03-18 03:44:00,
2013-03-17 23:49:00,32.2,25.2,30.10,NNE,16,7.0,11.0,75,0.00,,,0.00,Wunderground v.1.13,2013-03-18 03:49:00,
2013-03-17 23:54:00,32.2,25.2,30.10,ESE,121,5.0,12.0,75,0.00,,,0.00,Wunderground v.1.13,2013-03-18 03:54:00,
2013-03-17 23:59:00,32.2,25.2,30.10,ESE,115,6.0,12.0,75,0.00,,,0.00,Wunderground v.1.13,2013-03-18 03:59:00,